Hourly Data Report for May 31, 2021

WESTERN HEAD
NOVA SCOTIA
Current Station Operator: ECCC - MSC

43°59'24.070" N
64°39'51.008" W
10.10 m
8206240
71411
WWE

Download Data

Hourly Data (May 2021)
Hourly Data Report for May 31, 2021
TIME
LST
Temp Definition
°C
Dew Point Definition
°C
Rel Hum Definition
%
Precip. Amount Definition
mm

Wind Dir Definition
10's deg

Wind Spd Definition
km/h
Visibility Definition
km
Stn Press Definition
kPa
Hmdx Definition


Wind Chill Definition


Weather Definition


00:00 6.6 LegendMM LegendMM 0.3 4 11   102.71     LegendNANA
01:00 6.7 LegendMM LegendMM 0.0 4 12   102.68     LegendNANA
02:00 6.7 LegendMM LegendMM 0.2 4 12   102.64     LegendNANA
03:00 6.7 LegendMM LegendMM 0.0 3 12   102.59     LegendNANA
04:00 6.5 LegendMM LegendMM 0.2 3 11   102.53     LegendNANA
05:00 6.6 LegendMM LegendMM 0.0 3 12   102.51     LegendNANA
06:00 6.9 LegendMM LegendMM 0.0 3 12   102.50     LegendNANA
07:00 6.9 LegendMM LegendMM 6.5 2 13   102.45     LegendNANA
08:00 7.6 LegendMM LegendMM 3.7 2 10   102.49     LegendNANA
09:00 8.0 LegendMM LegendMM 0.0 1 10   102.43     LegendNANA
10:00 8.9 LegendMM LegendMM 0.0 1 12   102.41     LegendNANA
11:00 8.8 LegendMM LegendMM 0.0 1 11   102.38     LegendNANA
12:00 9.2 LegendMM LegendMM 0.0 1 10   102.34     LegendNANA
13:00 9.3 LegendMM LegendMM 0.0 1 11   102.25     LegendNANA
14:00 9.8 LegendMM LegendMM 0.0 1 12   102.17     LegendNANA
15:00 9.0 LegendMM LegendMM 2.3 1 9   102.05     LegendNANA
16:00 9.8 LegendMM LegendMM 14.1 2 7   102.00     LegendNANA
17:00 10.6 LegendMM LegendMM 2.1 36 10   101.94     LegendNANA
18:00 9.9 LegendMM LegendMM 0.2 2 6   101.86     LegendNANA
19:00 10.7 LegendMM LegendMM 3.8 7 3   101.77     LegendNANA
20:00 12.2 LegendMM LegendMM 0.2 21 15   101.72     LegendNANA
21:00 10.0 LegendMM LegendMM 0.3 20 12   101.69     LegendNANA
22:00 10.0 LegendMM LegendMM 2.3 22 15   101.66     LegendNANA
23:00 9.0 9.0 100 0.2 19 15   101.56     LegendNANA

Notes on Data Quality.

Legend

  • E = Estimated
  • M = Missing
  • NA = Not Available*
  • [empty] = Indicates an unobserved value
Date modified: